This is the latest recevied weather packets stored in our database for station/object KB3KAV. If no packets are shown the sender has not sent any weather packets the latest 10 day(s).
| Time | Temp. | Humidity | Pressure | Rain* | Wind** | Luminosity | Snow |
|---|---|---|---|---|---|---|---|
| 1778177934 | 15° C | 37% | 1038.4 hPa | 0 mm | - | 235 W/m² | - |
| 1778177333 | 15° C | 37% | 1038.4 hPa | 0 mm | - | 881 W/m² | - |
| 1778176731 | 15° C | 37% | 1038.4 hPa | 0 mm | - | 866 W/m² | - |
| 1778176126 | 14.44° C | 37% | 1038.6 hPa | 0 mm | - | 214 W/m² | - |
| 1778175527 | 15° C | 38% | 1038.5 hPa | 0 mm | - | 200 W/m² | - |
| 1778174925 | 15° C | 38% | 1038.8 hPa | 0 mm | - | 892 W/m² | - |
| 1778174324 | 14.44° C | 40% | 1039 hPa | 0 mm | - | 336 W/m² | - |
| 1778173724 | 13.89° C | 39% | 1039 hPa | 0 mm | - | 238 W/m² | - |
| 1778173121 | 13.89° C | 39% | 1039.5 hPa | 0 mm | - | 804 W/m² | - |
| 1778172519 | 13.89° C | 43% | 1039.4 hPa | 0 mm | - | 818 W/m² | - |
| 1778171920 | 13.89° C | 40% | 1039.5 hPa | 0 mm | - | 848 W/m² | - |
| 1778171319 | 13.89° C | 39% | 1039.7 hPa | 0 mm | - | 235 W/m² | - |
| 1778170718 | 13.33° C | 43% | 1039.7 hPa | 0 mm | - | 877 W/m² | - |
| 1778170117 | 13.89° C | 41% | 1040 hPa | 0 mm | - | 876 W/m² | - |
| 1778169515 | 12.78° C | 41% | 1040.1 hPa | 0 mm | - | 770 W/m² | - |
| 1778168913 | 13.33° C | 42% | 1040.2 hPa | 0 mm | - | 807 W/m² | - |
| 1778168347 | 12.78° C | 44% | 1040 hPa | 0 mm | - | 618 W/m² | - |
| 1778168313 | 12.78° C | 44% | 1040 hPa | 0 mm | - | 618 W/m² | - |
| 1778167876 | 12.78° C | 46% | 1040.6 hPa | 0 mm | - | 692 W/m² | - |
| 1778167712 | 12.78° C | 46% | 1040.6 hPa | 0 mm | - | 692 W/m² | - |
| 1778167345 | 13.33° C | 40% | 1040.3 hPa | 0 mm | - | 814 W/m² | - |
| 1778167111 | 13.33° C | 40% | 1040.3 hPa | 0 mm | - | 814 W/m² | - |
| 1778166510 | 12.22° C | 41% | 1040.6 hPa | 0 mm | - | 757 W/m² | - |
| 1778165908 | 12.78° C | 43% | 1040.6 hPa | 0 mm | - | 750 W/m² | - |
| 1778165308 | 13.33° C | 43% | 1040.8 hPa | 0 mm | - | 675 W/m² | - |
* Rain latest hour (hover to see other rain measurements)
** Current wind speed in m/s (hover to see current wind gust speed)